COSMOS 2251 DEB, 35997

Orbit data source: Space-Track

COSMOS 2251 DEB, 35997 is space debris in LEO originally from a launch on Wed, 16 Jun 1993 UTC launched from the Plesetsk Missile And Space Complex (PKMTR). The debris from Iridium 33, an American commercial communications satellite, has been tracked extensively since its accidental collision with the defunct Russian satellite Cosmos 2251 in 2009. This event, occurring at high speed in low Earth orbit (LEO), generated thousands of pieces of space debris, significantly increasing the risk of further collisions. The Iridium 33 debris cloud has impacted space traffic management and orbital debris mitigation strategies, making it a subject of ongoing study in space situational awareness.

Loading next visibility...
Identifier
35997, 1993-036AWP
Orbit
LEO
Country
Flag of CISCIS
Related business
Manufacturer
Unknown
Mission
Spacecraft
Bus & Motor
Unknown
Mass
Unknown
Launch date (UTC)
1993-06-16 (33 years ago)
Launch vehicle
Unknown
Launch site
Plesetsk Missile And Space Complex (PKMTR)
Object type
Payload
Rocket body
Debris
Shape & HBR
Unknown shape, 0.1 m
Radar Cross Section
Small (<0.1 m²)

Expand to show TLE details & history
Last TLE update: 6 days ago

TLE from 6 days ago
0 COSMOS 2251 DEB
1 35997U 93036AWP 26065.60793201  .00004259  00000-0  10622-2 0  9994
2 35997  74.0451  29.4714 0012373  87.1603 273.0974 14.51874084721019
Epoch: 2026-03-06T14:35Z
TLE epoch observation values (Epoch: 2026-03-06T14:35:25.325Z)
Latitude
-0.00006°
Longitude
6.27436°
Altitude
721.701 km
Speed
7.495 km/s
True Right ascension
01h 57m 53s
True Declination
0° 00' 00"
Sunlit
Object was in daylight at epoch
Visualization orbit readout
Latitude
Unknown
Longitude
Unknown
Altitude
Unknown
Speed
Unknown
Apparent Right ascension
Unknown
Apparent Declination
Unknown
Sunlit
N/A
Visualization observer readout
Local Sidereal Time
17:59:08
Azimuth
Unknown
Elevation
Unknown
Doppler factor
Unknown
Orbital elements
Apogee altitude
725.919 km
Perigee altitude
708.361 km
Semi-major axis
7,095.277 km
Eccentricity
0.00124
Inclination
74.0451°
RAAN
29.4714°
Arg. of periapsis
87.1603°
True anomaly
272.95581°
Mean anomaly
273.0974°
Eccentric anomaly
273.02661°
Mean motion
3.63153 °/min
Orbital period
99.13 mins
BSTAR
0.0010622
Loading maneuver chart data...
Computing Atmospheric mass density...

Documentation

Showing up to 5 results
|